EW0630 Weather Reports


Display with metric or nautical units.
time (UTC)temp
F
wind
direction
speed
MPH
gust
MPH
rain 1hr
in
rain 24hr
in
rain mn
in
humidity
%
barometer
mb
20220523203048 0 0.0 0.0 0.00 0.00 0.00 1017.8
20220523201540 70 281 0.0 4.0 0.00 0.00 0.00 89 1018.1
20220523200035 70 305 2.0 13.0 0.00 0.00 0.00 90 1018.2
20220523194534 70 288 1.0 13.0 0.00 0.00 0.00 90 1018.3
20220523193037 70 304 0.0 3.0 0.00 0.00 0.00 90 1018.0
20220523191537 70 289 0.0 1.0 0.00 0.00 0.00 90 1018.2
20220523190033 71 289 0.0 3.0 0.00 0.00 0.00 90 1018.0
20220523184532 73 271 0.0 5.0 0.00 0.00 0.00 86 1017.9
20220523183032 72 240 1.0 7.0 0.00 0.00 0.00 86 1017.9
20220523181515 72 333 1.0 8.0 0.00 0.00 0.00 87 1017.9
20220523180014 71 248 2.0 7.0 0.00 0.00 0.00 90 1018.0
20220523174504 69 259 1.0 7.0 0.00 0.00 0.00 89 1018.2
20220523173110 0 0.0 0.0 0.00 0.00 0.00 1018.2
20220523171558 0 0.0 0.0 0.00 0.00 0.00 1018.1
20220523170051 0 0.0 0.0 0.00 0.00 0.00 1018.1
20220523164600 0 0.0 0.0 0.00 0.00 0.00 1017.9
20220523163042 0 0.0 0.0 0.00 0.00 0.00 1017.4
20220523161555 0 0.0 0.0 0.00 0.00 0.00 1016.9
20220523160038 0 0.0 0.0 0.00 0.00 0.00 1016.0
20220523154512 0 0.0 0.0 0.00 0.00 0.00 1015.4
20220523153007 0 0.0 0.0 0.00 0.00 0.00 1014.8
20220523151552 0 0.0 0.0 0.00 0.00 0.00 1014.5
20220523150110 68 170 0.0 6.0 0.00 0.00 0.00 88 1014.4
20220523144524 68 199 0.0 8.0 0.00 0.00 0.00 88 1014.4
20220523143024 67 107 0.0 4.0 0.00 0.00 0.00 88 1014.5
20220523141514 67 82 0.0 3.0 0.00 0.00 0.00 88 1014.6
20220523140010 66 74 1.0 4.0 0.00 0.00 0.00 88 1014.8
20220523134512 66 110 0.0 4.0 0.00 0.00 0.00 89 1014.9
20220523133006 65 123 0.0 5.0 0.00 0.00 0.00 89 1015.0
20220523131510 0 0.0 0.0 0.00 0.00 0.00 1015.2
20220523130059 0 0.0 0.0 0.00 0.00 0.00 1015.4
20220523124555 0 0.0 0.0 0.00 0.00 0.00 1015.8
20220523123051 0 0.0 0.0 0.00 0.00 0.00 1015.7
20220523121539 65 99 2.0 10.0 0.00 0.00 0.00 89 1016.2
20220523120033 65 105 1.0 8.0 0.00 0.00 0.00 89 1016.6
20220523114530 66 89 1.0 7.0 0.00 0.00 0.00 89 1016.9
20220523113028 66 106 1.0 7.0 0.00 0.00 0.00 89 1017.3
20220523111536 66 117 0.0 4.0 0.00 0.00 0.00 89 1017.9
20220523110041 66 90 0.0 5.0 0.00 0.00 0.00 89 1018.1
20220523104540 66 71 0.0 3.0 0.00 0.00 0.00 89 1018.3
20220523103022 67 124 0.0 2.0 0.00 0.00 0.00 89 1018.6
20220523101509 67 156 0.0 3.0 0.00 0.00 0.00 89 1018.5
20220523100028 67 133 1.0 4.0 0.00 0.00 0.00 89 1017.9
20220523094507 67 105 0.0 2.0 0.00 0.00 0.00 89 1018.1
20220523093006 67 103 0.0 1.0 0.00 0.00 0.00 89 1018.8
20220523091506 67 103 0.0 0.0 0.00 0.00 0.00 89 1018.7
20220523090002 67 103 0.0 0.0 0.00 0.00 0.00 89 1018.7
20220523084600 68 103 0.0 0.0 0.00 0.00 0.00 89 1018.9
20220523083057 68 103 0.0 0.0 0.00 0.00 0.00 89 1020.0
20220523081603 68 103 0.0 0.0 0.00 0.00 0.00 90 1019.9
20220523080045 68 103 0.0 1.0 0.00 0.00 0.00 90 1019.8
20220523074544 68 103 0.0 0.0 0.00 0.00 0.00 90 1019.7
20220523073043 68 103 0.0 1.0 0.00 0.00 0.00 90 1019.7
20220523071542 68 103 0.0 0.0 0.00 0.00 0.00 90 1019.8
20220523070042 68 103 0.0 0.0 0.00 0.00 0.00 90 1019.7
20220523064551 68 103 0.0 1.0 0.00 0.00 0.00 90 1019.9
20220523063040 68 104 0.0 1.0 0.00 0.00 0.00 90 1020.0
20220523061546 68 104 0.0 0.0 0.00 0.00 0.00 90 1020.1
20220523060026 69 104 0.0 0.0 0.00 0.00 0.00 90 1020.1
20220523054526 69 104 0.0 0.0 0.00 0.00 0.00 89 1020.0
20220523053023 70 104 0.0 0.0 0.00 0.00 0.00 88 1019.9
20220523051526 70 104 0.0 0.0 0.00 0.00 0.00 88 1020.0
20220523050023 70 104 0.0 1.0 0.00 0.00 0.00 88 1019.9
20220523044520 70 104 0.0 1.0 0.00 0.00 0.00 88 1020.1
20220523043018 70 104 0.0 3.0 0.00 0.00 0.00 87 1020.0
20220523041505 71 139 0.0 2.0 0.00 0.00 0.00 86 1019.9
20220523040006 71 142 0.0 3.0 0.00 0.00 0.00 86 1020.5
20220523034605 72 158 1.0 5.0 0.00 0.00 0.00 84 1020.8
20220523033058 73 157 2.0 6.0 0.00 0.00 0.00 83 1020.9
20220523031603 74 145 1.0 5.0 0.00 0.00 0.00 81 1021.2
20220523030055 74 124 2.0 7.0 0.00 0.00 0.00 80 1021.1
20220523024553 74 138 1.0 5.0 0.00 0.00 0.00 80 1021.1
20220523023049 75 180 1.0 10.0 0.00 0.00 0.00 79 1021.0
20220523021551 75 150 1.0 8.0 0.00 0.00 0.00 77 1021.0
20220523020033 76 92 1.0 6.0 0.00 0.00 0.00 75 1021.0
20220523014530 76 147 0.0 6.0 0.00 0.00 0.00 74 1020.6
20220523013029 76 145 0.0 5.0 0.00 0.00 0.00 74 1020.5
20220523011533 77 125 0.0 2.0 0.00 0.00 0.00 77 1020.4
20220523010025 78 158 1.0 6.0 0.00 0.00 0.00 75 1020.3
20220523004520 79 130 0.0 2.0 0.00 0.00 0.00 72 1020.0
20220523003025 79 132 0.0 2.0 0.00 0.00 0.00 72 1019.8
20220523001528 80 167 1.0 4.0 0.00 0.00 0.00 71 1019.6
20220523000008 80 122 0.0 2.0 0.00 0.00 0.00 71 1019.3
20220522234508 81 117 0.0 4.0 0.00 0.00 0.00 69 1019.2
20220522233007 81 136 0.0 5.0 0.00 0.00 0.00 69 1019.4
20220522231507 82 170 0.0 4.0 0.00 0.00 0.00 67 1019.3
20220522230008 82 213 1.0 8.0 0.00 0.00 0.00 66 1019.5
20220522224509 83 140 2.0 7.0 0.00 0.00 0.00 65 1019.5
20220522223004 84 136 0.0 6.0 0.00 0.00 0.00 64 1019.4
20220522221506 84 130 0.0 9.0 0.00 0.00 0.00 60 1019.6
20220522220135 85 128 0.0 5.0 0.00 0.00 0.00 59 1019.4
20220522214551 85 103 2.0 6.0 0.00 0.00 0.00 57 1019.4
20220522213050 85 109 1.0 6.0 0.00 0.00 0.00 56 1019.5
20220522211549 85 128 1.0 6.0 0.00 0.00 0.00 57 1019.6
20220522210047 86 139 2.0 8.0 0.00 0.00 0.00 53 1019.8
20220522204609 87 134 0.0 6.0 0.00 0.00 0.00 54 1020.1